Flag for U.S.A. Weather past 2 weeks in Cape Canaveral, Florida, U.S.A.

Now
91 °F

Sunny.


Feels Like: 108 °F
Forecast: 78 / 89 °F
Wind: 7 mph from East

Location: Cape Kennedy

Current Time: Aug 29, 2015 at 2:00:10 PM

Latest Report: Aug 29, 2015 at 12:58 PM


Visibility: 10 mi

Pressure: 30.09 "Hg

Humidity: 67%

Dew point: 79 °F

Location of Cape CanaveralLocation

Historic Weather in Cape Canaveral — Graph

°F

Cape Canaveral temperature yesterday

Maximum temperature yesterday: 91 °F (at 12:58 PM)
Minimum temperature yesterday: 75 °F (at 11:58 PM)
Average temperature yesterday: 81 °F

Past Weeks' High & Low Weather Summary

 TemperatureHumidityPressure
High98 °F (Aug 24, 1:58 PM)94% (Aug 16, 6:58 AM)30.12 "Hg (Aug 16, 6:58 AM)
Low72 °F (Aug 27, 5:58 AM)48% (Aug 24, 12:58 PM)29.88 "Hg (Aug 24, 6:58 PM)
Average83 °F78%30.00 "Hg
* Reported Aug 14 12:58 PM — Aug 29 12:58 PM, Cape Canaveral, Weather by CustomWeather, © 2015

Note: Actual official high and low records may vary slightly from our data, if they occured in-between our weather recording intervals... More about our weather records

Advertising

Cape Canaveral weather history for previous 24 hours

 ConditionsComfort  
Time TempWeatherWind HumidityBarometerVisibility
12:58 PM
Sat, Aug 29
91 °FSunny.7 mph67%30.09 "Hg10 mi
11:58 AM90 °FSunny.8 mph70%30.09 "Hg10 mi
10:58 AM89 °FSunny.9 mph74%30.09 "Hg10 mi
9:58 AM87 °FSunny.10 mph84%30.08 "Hg10 mi
8:58 AM84 °FSunny.8 mph92%30.08 "Hg10 mi
7:58 AM77 °FSunny.6 mph90%30.07 "Hg10 mi
6:58 AM75 °FClear.3 mph87%30.05 "Hg10 mi
5:58 AM75 °FClear.1 mph88%30.04 "Hg10 mi
4:58 AM76 °FClear.2 mph88%30.04 "Hg10 mi
3:58 AM75 °FClear.3 mph87%30.04 "Hg10 mi
2:58 AM76 °FClear.3 mph86%30.03 "Hg10 mi
1:58 AM76 °FClear.5 mph87%30.05 "Hg10 mi
12:58 AM76 °FClear.2 mph86%30.07 "Hg10 mi
11:58 PM
Fri, Aug 28
75 °FClear.5 mph85%30.09 "Hg10 mi
10:58 PM76 °FClear.2 mph85%30.08 "Hg10 mi
10:03 PM77 °FHeavy rain. Clear.2 mph83%30.06 "Hg1 mi
9:58 PM78 °FLight rain. Clear.5 mph84%30.07 "Hg3 mi
9:04 PM77 °FPassing clouds.6 mph83%30.05 "Hg10 mi
8:58 PM79 °FClear.2 mph81%30.05 "Hg7 mi
7:58 PM79 °FSunny.3 mph82%30.03 "Hg10 mi
6:58 PM80 °FSunny.5 mph80%30.00 "Hg10 mi
5:58 PM82 °FSunny.7 mph75%30.02 "Hg10 mi
4:58 PM84 °FSunny.7 mph73%30.00 "Hg10 mi
3:58 PM89 °FSunny.6 mph63%30.02 "Hg10 mi
2:58 PM90 °FSunny.9 mph60%30.02 "Hg10 mi
Weather by CustomWeather, © 2015

See weather overviewHow to use our weather pages